Hourly Data Report for September 05, 2017

All times are specified in Local Standard Time (LST). Add 1 hour to adjust for Daylight Saving Time where and when it is observed.

GJOA HAVEN A
NUNAVUT

68°38'08.000" N
95°51'01.000" W
46.90 m
2302337
71597
YHK

Download Data

Hourly Data (September 2017)
Hourly Data Report for September 5, 2017
Temp Definition
°C
Dew Point Temp Definition
°C
Rel Hum Definition
%
Wind Dir Definition
10's deg

Wind Spd Definition
km/h
Visibility Definition
km
Stn Press Definition
kPa
Hmdx Definition


Wind Chill Definition


Weather Definition


TIME
00:00 Legend Double Dagger 0.8 0.5 98 36 11 16.1 101.12     LegendNANA
01:00 Legend Double Dagger 0.6 0.3 98 34 11 14.5 101.12     Rain
02:00 Legend Double Dagger 0.6 0.0 96 34 13 16.1 101.12     LegendNANA
03:00 Legend Double Dagger 0.3 0.0 98 36 17 16.1 101.12     LegendNANA
04:00 Legend Double Dagger -0.1 -1.1 93 35 21 16.1 101.15   -6 LegendNANA
05:00 Legend Double Dagger -0.2 -0.9 95 36 22 16.1 101.15   -6 LegendNANA
06:00 Legend Double Dagger -0.4 -1.0 96 36 24 16.1 101.16   -6 LegendNANA
07:00 Legend Double Dagger 0.3 -0.7 93 35 26 16.1 101.16     LegendNANA
08:00 Legend Double Dagger 0.5 -0.7 92 36 17 16.1 101.18     LegendNANA
09:00 Legend Double Dagger 1.0 0.7 98 35 15 4.8 101.19     Rain,Fog
10:00 Legend Double Dagger 2.4 0.2 85 3 13 16.1 101.21     LegendNANA
11:00 Legend Double Dagger 3.4 0.3 80 3 17 16.1 101.23     LegendNANA
12:00 Legend Double Dagger 4.3 -0.2 73 4 15 16.1 101.24     LegendNANA
13:00 Legend Double Dagger 3.7 0.7 81 4 17 16.1 101.26     LegendNANA
14:00 Legend Double Dagger 3.5 0.3 80 7 9 16.1 101.29     LegendNANA
15:00 Legend Double Dagger 3.7 0.0 77 7 8 16.1 101.30     LegendNANA
16:00 Legend Double Dagger 3.6 0.1 78 9 8 16.1 101.30     LegendNANA
17:00 Legend Double Dagger 3.3 0.3 81 5 8 16.1 101.28     LegendNANA
18:00 Legend Double Dagger 2.6 0.9 88 2 9 14.5 101.28     LegendNANA
19:00 Legend Double Dagger 2.3 0.4 87 35 8 16.1 101.27     LegendNANA
20:00 Legend Double Dagger 1.6 -0.1 89 34 5 16.1 101.28     LegendNANA
21:00 Legend Double Dagger 1.9 -0.2 86 32 5 16.1 101.30     LegendNANA
22:00 Legend Double Dagger 1.8 0.0 88 LegendMM 4 16.1 101.28     LegendNANA
23:00 Legend Double Dagger 1.7 0.2 90 32 5 16.1 101.28     LegendNANA

Notes on Data Quality.

Legend

  • E = Estimated
  • M = Missing
  • NA = Not Available
  • ‡ = Partner data that is not subject to review by the National Climate Archives
Date modified: